sat.trackr.live / text

‹ back to catalog

STARLINK-37050

NORAD 68228 · 2026-053X

PAYLOAD ACTIVE UNKNOWN

§ Identity

Operator
Country
US
Launch date
2026-03-17
Launch site
AFWTR
Launch vehicle
Mass (kg)
RCS (m²)

Purposes: comms

External: N2YO · Heavens-Above · Gunter

§ Orbital elements

Epoch: 2026-09-19T22:57:30.136320Z

Period
93.91 min
Inclination
97.2847°
Eccentricity
0.0001695
Mean motion
15.33424671 rev/d
Perigee alt
464.4 km
Apogee alt
466.8 km
Semi-major
6,843.7 km
B*
1.5567e-4
RAAN
136.7957°
Arg perigee
79.3835°
Mean anomaly
280.7599°
Rev number
2,997

§ Raw data

STARLINK-370501 68228U 26053X   26262.95659880  .00004951  00000+0  15567-3 0  99952 68228  97.2847 136.7957 0001695  79.3835 280.7599 15.33424671 29972

JSON: /api/v1/satellites/68228 · /tle

For live sub-satellite position, see the globe view (requires WebGL).

§ Visibility from observer

Set your observer location to see the next 7 days of passes ≥ 10°. The values pass through the URL so the page stays shareable.

No JS? Fill the form by hand. The geolocation button needs JavaScript.